THOR ABLE DEB (YO)

Satellite information

Favourite Embed

Satellite Type and Status

DEBRISIN ORBIT

Key statistics

Satellite THOR ABLE DEB (YO) at a glance.

Uptime

23910

Days in orbit

Revolutions

≈ 15.0

Per day

Orbit

LEO

Low Earth Orbit

Inclination

48.2

Latest

Satellite identification and parameters

Extended collection of information and parameters for THOR ABLE DEB (YO).

Object identification

Identified? True

Debris? True

Object name: THOR ABLE DEB (YO)

International designator: 1960-002D

Object number (NORAD): 115

Object ID (CCSDS): 115

Country: UNITED STATES OF AMERICA (US)

Current information (Y/N): Y

RCS size: SMALL

Orbital parameters

Period: 96.275 minutes

Inclination: 48.1647 deg

SMA: 6958.291 km

Apoapsis: 598.517 km

Periapsis: 561.795 km

RAAN: 5.9064 deg

Eccentricy: 0.00263871

Argument of periapsis: 106.2129 deg

Mean anomaly: 254.1694 deg

Mean motion: 14.95715232 rev/day

Mean motion (dot): 0.00002925 rev/day2

B* drag term: 0.00027973189 1/REarth

Two-line elements (TLE)

Creation date: Sept. 16, 2025, 7:42 p.m.

Reference frame: TEME

Reference center: EARTH

Epoch: Sept. 16, 2025, 8:12 a.m. UTC

TLE line 0: 0 THOR ABLE DEB (YO)

TLE line 1: 1 00115U 60002D 25259.34233903 .00002925 00000-0 27973-3 0 9994

TLE line 2: 2 00115 48.1647 5.9064 0026387 106.2129 254.1694 14.95715232477109

Live tracking on map

Real-time ground track for satellite THOR ABLE DEB (YO).

In-orbit conjunctions

There are no conjunctions computed for THOR ABLE DEB (YO), at the moment. Check back to stay up to date, as we update our databases every day.

Go to all conjunctions

Associated space launch

TIROS-1 was the first successful low-Earth orbital weather satellite, and the first of a series of Television Infrared Observation Satellites.

THOR ABLE DEB (YO) was lifted into orbit during the mission ‘Thor Able II | Tiros 1’, on board a Thor Able II space rocket.

The launch took place on April 1, 1960, 11:40 a.m. from Space Launch Complex 17A.

For more information about the launch, click the button.

Launch to space Thor Able II | Tiros 1
Thor Able II | Tiros 1

Agency: N/A

Status: Launch Successful

Launch date: April 1, 1960, 11:40 a.m. UTC

Rocket: Thor Able II

Launch pad: Space Launch Complex 17A

Location: Cape Canaveral SFS, FL, USA

...

Latest news about this satellite

There are no fresh news available about this satellite. Check back as we update our databases every day.


Newsletter sign-up

Weekly statistics, charts and insights to help you stay on top of the space industry.